Tracking 19476 objects as of 17-Jan-2019
HD Live streaming from Space Station
objects crossing your sky now

IRIDIUM 163

Track IRIDIUM 163 now!
10-day predictions
IRIDIUM 163 is classified as:


NORAD ID: 43575
Int'l Code: 2018-061G
Perigee: 782.7 km
Apogee: 786.9 km
Inclination: 86.4 °
Period: 100.4 minutes
Semi major axis: 7155 km
RCS: Unknown
Launch date: July 25, 2018
Source: United States (US)
Launch site: AIR FORCE WESTERN TEST RANGE (AFWTR)
aabbcc
Your satellite tracking list
Your tracking list is empty




NASA's NSSDC Master Catalog

Two Line Element Set (TLE):
1 43575U 18061G   19017.35683236  .00000053  00000-0  11751-4 0  9991
2 43575  86.3982 108.3725 0002968  91.8298 268.3238 14.34216815 25262
Source of the keplerian elements: AFSPC